This demonstration page uses our WeatherBlox Daily Observations layout. Learn more.

38.88101, -77.10428

Hourly Observations for June 28, 2016

Temp ( °F °C ) Dew Point ( °F °C ) Humidity (%) Winds ( mph kmh ) Pressure ( in mb ) Visibility ( mi km ) Precip ( " mm )
12:05 am 00:05 Cloudy with Light Rain 73 22.8 71 21.7 94 94 SE 6 9 29.97 1015 3 4.82802 0.13 3.302
12:12 am 00:12 Cloudy with Thunderstorms 73 23 72 22 94 94 SSE 9 15 29.97 1015 4 6.43736 0 0
12:22 am 00:22 Cloudy with Light Thunderstorms 73 23 72 22 94 94 SSE 12 19 29.97 1015 9 14.48406 0 0
12:29 am 00:29 Cloudy 74 23.3 71 21.7 91 91 SSE 9 15 29.97 1015 10 16.0934 0.16 4.064
12:52 am 00:52 Cloudy with Light Rain 74 23.3 71 21.7 91 91 SSE 9 15 29.96 1015 10 16.0934 0.16 4.064
1:03 am 01:03 Cloudy with Light Rain 73 23 72 22 94 94 S 6 9 29.97 1015 10 16.0934 0 0
1:15 am 01:15 Cloudy with Light Rain 74 23.3 71 21.7 91 91 SSE 10 17 29.94 1014 10 16.0934 0 0.0254
1:52 am 01:52 Cloudy with Light Rain 75 23.9 73 22.8 94 94 S 7 11 29.95 1014 9 14.48406 0.06 1.524
2:16 am 02:16 Cloudy 73 23 72 22 94 94 S 13 20 29.94 1014 10 16.0934 0 0
2:52 am 02:52 Partly Cloudy 74 23.3 71 21.7 91 91 S 7 11 29.93 1014 10 16.0934 0.02 0.508
3:34 am 03:34 Mostly Cloudy 73 23 72 22 94 94 SSW 7 11 29.94 1014 10 16.0934 0 0
3:39 am 03:39 Cloudy 74 23.3 72 22.2 94 94 SSW 7 11 29.94 1014 10 16.0934 0 0
3:52 am 03:52 Cloudy 74 23.3 72 22.2 94 94 SSW 7 11 29.93 1013 10 16.0934 0 0
4:36 am 04:36 Cloudy 73 23 72 22 94 94 S 8 13 29.91 1013 10 16.0934 0 0
4:52 am 04:52 Cloudy 74 23.3 72 22.2 94 94 S 6 9 29.92 1013 10 16.0934 0 0
5:52 am 05:52 Cloudy 74 23.3 72 22.2 94 94 SSE 8 13 29.93 1014 9 14.48406 0 0
6:52 am 06:52 Cloudy 75 23.9 72 22.2 90 90 S 7 11 29.93 1014 9 14.48406 0 0
7:25 am 07:25 Cloudy 75 23.9 72 22.2 90 90 SSW 5 7 29.94 1014 10 16.0934 0 0
7:47 am 07:47 Cloudy 75 24 73 23 94 94 S 5 7 29.94 1014 10 16.0934 0 0
7:52 am 07:52 Cloudy 75 23.9 72 22.2 90 90 SSW 5 7 29.93 1014 10 16.0934 0 0
8:52 am 08:52 Cloudy 76 24.4 72 22.2 88 88 S 3 6 29.94 1014 10 16.0934 0 0
9:52 am 09:52 Cloudy 78 25.6 73 22.8 85 85 S 3 6 29.94 1014 10 16.0934 0 0
9:59 am 09:59 Cloudy 78 25.6 73 22.8 85 85 SE 5 7 29.94 1014 10 16.0934 0 0
10:40 am 10:40 Mostly Cloudy 79 26 73 23 84 84 SE 3 6 29.94 1014 10 16.0934 0 0
10:52 am 10:52 Mostly Cloudy 80 26.7 73 22.8 79 79 ESE 3 6 29.93 1014 10 16.0934 0 0
11:12 am 11:12 Mostly Cloudy 81 27 73 23 79 79 S 5 7 29.94 1014 10 16.0934 0 0
11:52 am 11:52 Mostly Cloudy 81 27.2 74 23.3 79 79 SSE 7 11 29.93 1014 10 16.0934 0 0
12:52 pm 12:52 Cloudy 81 27.2 74 23.3 79 79 S 8 13 29.92 1013 10 16.0934 0 0
1:52 pm 13:52 Mostly Cloudy 83 28.3 75 23.9 77 77 SSW 8 13 29.91 1013 10 16.0934 0 0
2:52 pm 14:52 Mostly Cloudy 83 28.3 74 23.3 74 74 SSE 5 7 29.88 1012 10 16.0934 0 0
3:52 pm 15:52 Mostly Cloudy 86 30 75 23.9 70 70 S 12 19 29.86 1011 10 16.0934 0 0
4:52 pm 16:52 Mostly Cloudy 86 30 74 23.3 67 67 S 10 17 29.85 1011 10 16.0934 0 0
5:52 pm 17:52 Mostly Cloudy 84 28.9 73 22.8 70 70 S 12 19 29.84 1011 10 16.0934 0 0
6:34 pm 18:34 Mostly Cloudy with Light Thunderstorms 82 28 73 23 74 74 S 12 19 29.85 1011 10 16.0934 0 0
6:52 pm 18:52 Mostly Cloudy with Thunderstorms 82 27.8 74 23.3 77 77 S 7 11 29.86 1011 4 6.43736 0 0.0254
7:21 pm 19:21 Cloudy with Light Rain 75 23.9 69 20.6 82 82 ENE 20 31 29.88 1012 10 16.0934 0.03 0.762
7:25 pm 19:25 Mostly Cloudy 74 23.3 68 20 82 82 ENE 18 30 29.88 1012 10 16.0934 0.03 0.762
7:52 pm 19:52 Mostly Cloudy 74 23.3 68 20 82 82 E 7 11 29.84 1011 10 16.0934 0.03 0.762
8:52 pm 20:52 Mostly Cloudy with Light Rain 73 22.8 68 20 84 84 W 7 11 29.89 1012 10 16.0934 0 0.0254
9:07 pm 21:07 Mostly Cloudy with Light Thunderstorms 74 23.3 68 20 82 82 NNW 15 24 29.91 1013 10 16.0934 0 0.0254
9:16 pm 21:16 Cloudy with Heavy Thunderstorms 72 22 66 19 83 83 NW 8 13 29.91 1013 4 6.43736 0 0
9:19 pm 21:19 Cloudy with Heavy Thunderstorms 72 22.2 67 19.4 84 84 WNW 7 11 29.91 1013 1.75 2.816345 0.07 1.778
9:24 pm 21:24 Cloudy with Heavy Thunderstorms 72 22 68 20 88 88 SSW 6 9 29.91 1013 0.75 1.207005 0 0
9:27 pm 21:27 Cloudy with Heavy Thunderstorms 72 22.2 68 20 87 87 S 12 19 29.91 1013 0.75 1.207005 0.41 10.414
9:33 pm 21:33 Cloudy with Heavy Thunderstorms 71 21.7 68 20 90 90 S 18 30 29.91 1013 1 1.60934 0.66 16.764
9:40 pm 21:40 Cloudy with Thunderstorms 72 22 68 20 88 88 SSE 14 22 29.91 1013 3 4.82802 0 0
9:42 pm 21:42 Cloudy with Light Thunderstorms 72 22 68 20 88 88 SSE 12 19 29.91 1013 4 6.43736 0 0
9:49 pm 21:49 Cloudy with Light Rain 72 22 68 20 88 88 SSW 10 17 29.91 1013 10 16.0934 0.75 19.05
9:52 pm 21:52 Cloudy with Light Rain 71 21.7 68 20 90 90 S 8 13 29.91 1013 10 16.0934 0.75 19.05
10:34 pm 22:34 Mostly Cloudy 70 21 66 19 88 88 S 8 13 29.91 1013 10 16.0934 0 0
10:52 pm 22:52 Mostly Cloudy 70 21.1 65 18.3 84 84 SSW 5 7 29.91 1013 10 16.0934 0.01 0.254
11:48 pm 23:48 Mostly Cloudy 70 21 64 18 83 83 W 5 7 29.91 1013 10 16.0934 0 0
11:52 pm 23:52 Mostly Cloudy 70 21.1 66 18.9 87 87 W 6 9 29.92 1013 10 16.0934 0 0

Powered by AerisWeather